sat.trackr.live / text

‹ back to catalog

STARLINK-6242

NORAD 56424 · 2023-061BC

PAYLOAD ACTIVE UNKNOWN

§ Identity

Operator
Country
US
Launch date
2023-05-04
Launch site
AFETR
Launch vehicle
Mass (kg)
RCS (m²)

Purposes: comms

External: N2YO · Heavens-Above · Gunter

§ Orbital elements

Epoch: 2026-09-20T02:57:39.256128Z

Period
94.27 min
Inclination
43.0021°
Eccentricity
0.0001362
Mean motion
15.27574876 rev/d
Perigee alt
482.1 km
Apogee alt
484.0 km
Semi-major
6,861.2 km
B*
4.0022e-5
RAAN
161.6816°
Arg perigee
269.3175°
Mean anomaly
90.7520°
Rev number
18,669

§ Raw data

STARLINK-62421 56424U 23061BC  26263.12337102  .00000839  00000+0  40022-4 0  99922 56424  43.0021 161.6816 0001362 269.3175  90.7520 15.27574876186692

JSON: /api/v1/satellites/56424 · /tle

For live sub-satellite position, see the globe view (requires WebGL).

§ Visibility from observer

Set your observer location to see the next 7 days of passes ≥ 10°. The values pass through the URL so the page stays shareable.

No JS? Fill the form by hand. The geolocation button needs JavaScript.